Location: Alexander
(41.3564°N, 81.5960°W)
Time: 07:42:22
(UTC+00:00)

Cosmos 990 Rocket - Pass Details

Date: 24 January 2021
Orbit: 748 x 768 km, 74.0° (Epoch: 02 March)

Event Time Altitude Azimuth Distance (km) Brightness Sun altitude
Rises 23:28:59 0° 190° (S) 3,210 7.6 -10.6°
Reaches altitude 10° 23:31:22 10° 187° (S) 2,286 6.8 -11.1°
Maximum altitude 23:36:30 66° 106° (ESE) 829 4.0 -12.0°
Drops below altitude 10° 23:41:38 10° 25° (NNE) 2,288 6.1 -12.9°
Enters shadow 23:43:08 - 24° (NNE) 2,869 6.6 -13.2°
